Location: Banios
(43.0451°N, 0.2335°E)
Time: 12:40:56
(UTC+00:00)

Cosmos 540 Rocket - Pass Details

Date: 25 January 2021
Orbit: 739 x 754 km, 74.1° (Epoch: 25 February)

Event Time Altitude Azimuth Distance (km) Brightness Sun altitude
Exits shadow 04:45:15 69° 63° (ENE) 795 3.6 -28.4°
Drops below altitude 10° 04:49:56 10° 23° (NNE) 2,270 6.2 -27.5°
Sets 04:52:18 0° 22° (NNE) 3,200 7.0 -27.1°
